GLOBALSTAR M059 [+]

Last updated on Fri Nov 22 2019 04:19:47 GMT+0000 (Coordinated Universal Time)

1 25944U 99058B 19325.18306166 -.00000052 00000-0 42955-3 0 9992 2 25944 52.0024 312.2074 0000804 299.6750 141.1510 11.99935412918496

Satellite not in orbit

GLOBALSTAR M059 [+]